Wind_Speed
10 13 16 16 16 16 15 14 13 12 11 10 9 10 9 6 5 3 3 6 9 10 8 12 13 15 16 10 7 7 3 3 3 6 3 2 3 3 7 12 10 7 10 10 34
9 12 13 13 13 14 14 14 12 10 10 10 10 10 11 10 6 6 9 8 6 6 7 11 13 13 6 9 9 4 4 5 3 2 3 3 3 9 6 9 4 7 9 25 36
7 9 11 11 11 12 14 13 12 10 9 11 13 14 12 11 9 4 10 8 3 7 4 8 12 11 6 6 6 5 5 4 2 2 7 2 2 2 6 3 10 17 20 38 34
5 6 7 9 10 11 11 12 12 10 10 10 14 16 13 10 4 12 13 9 5 3 5 7 8 4 5 6 7 4 7 4 0 4 8 4 7 4 8 4 13 16 26 41 37
5 4 4 7 9 10 11 10 10 11 12 13 14 15 14 11 7 15 11 5 4 2 2 11 13 6 4 5 6 3 6 17 11 10 10 6 4 4 8 5 12 19 33 39 38
6 4 3 5 9 11 12 12 12 11 13 14 15 16 17 8 16 12 9 1 2 3 5 9 7 2 3 4 5 10 2 11 3 4 9 4 3 3 7 8 16 25 32 35 36
8 7 6 6 9 12 13 15 14 11 11 12 13 13 9 7 18 7 6 4 2 2 6 9 2 3 3 3 4 5 6 1 8 3 4 5 2 5 4 11 20 21 23 32 33
8 10 10 9 9 9 10 12 12 12 9 9 11 10 5 9 12 15 4 3 1 1 2 6 4 4 1 1 2 2 4 3 5 9 6 2 6 5 8 15 13 17 20 23 28
9 9 13 13 11 8 7 12 15 14 13 9 8 7 5 9 10 14 5 1 4 3 3 3 4 2 1 2 3 1 3 4 6 13 6 5 5 4 11 15 16 19 18 17 18
12 8 10 14 17 16 14 14 17 13 12 6 7 4 4 8 8 5 14 7 3 5 6 3 3 2 2 2 4 4 2 3 3 5 5 4 7 2 14 16 15 14 18 21 14
12 11 8 11 13 15 15 11 7 4 11 4 8 5 8 10 6 5 4 9 5 1 2 2 2 4 5 4 2 3 2 5 4 2 5 6 5 3 5 6 10 15 13 22 24
13 13 9 9 10 10 10 5 6 6 7 7 7 9 6 4 1 2 1 3 6 5 7 4 3 6 4 5 4 5 2 4 1 1 4 4 3 1 3 3 10 16 20 20 18
15 14 10 8 7 5 4 4 5 5 2 5 8 5 4 3 2 2 7 4 3 7 6 3 3 6 2 4 5 2 3 3 4 3 4 4 2 2 1 3 8 11 15 11 9
17 14 11 8 4 5 3 3 2 2 4 6 4 3 5 5 0 1 1 4 3 4 5 3 3 5 4 4 2 3 4 4 3 3 4 2 3 3 3 3 4 8 6 5 8
16 12 12 7 5 4 3 2 2 1 5 6 7 7 6 3 5 2 1 2 3 3 3 2 2 5 3 4 6 6 2 5 3 4 4 6 5 5 2 5 4 5 9 10 11
16 8 12 8 5 3 2 0 1 6 3 5 4 7 5 4 3 6 2 2 0 3 2 1 2 2 2 2 3 2 2 5 3 3 3 1 4 4 3 3 2 5 9 12 15
15 8 12 8 5 3 1 2 5 5 2 5 3 5 3 4 5 5 4 6 4 5 6 2 2 1 1 1 2 2 4 3 3 4 4 4 3 5 3 3 3 6 11 10 15
14 9 9 9 5 3 2 4 5 3 4 2 2 3 3 5 2 7 3 6 4 3 3 4 5 4 4 2 1 3 3 5 3 3 3 2 4 5 3 4 5 8 9 11 14
15 9 6 8 2 2 2 3 5 5 1 3 2 3 3 4 3 3 3 1 2 1 3 3 3 2 3 2 2 2 1 3 6 3 3 2 4 6 6 4 6 8 14 14 13
17 7 4 5 2 2 3 4 3 3 1 1 1 1 1 3 4 5 4 1 3 1 1 1 3 1 2 1 3 2 3 3 3 3 3 4 4 4 4 4 3 4 9 10 9
14 6 2 2 4 1 2 5 4 5 4 2 2 2 2 1 2 1 2 1 1 4 0 1 3 4 2 4 2 4 3 5 3 3 4 3 5 5 4 4 3 4 5 6 7
8 3 4 2 1 2 1 3 2 3 4 3 2 3 4 3 1 1 2 4 1 0 0 1 2 2 1 1 2 1 1 2 4 3 1 2 4 3 1 1 5 8 7 6 7
13 6 5 4 1 2 3 2 3 4 4 4 5 5 3 3 1 2 2 1 0 2 2 1 2 2 5 3 1 1 2 3 2 2 3 3 4 2 5 9 11 12 11 11 10
7 3 3 5 4 4 3 4 3 5 4 4 3 3 3 3 3 3 2 2 1 1 1 2 2 4 5 2 1 2 3 1 2 2 4 4 4 1 4 6 11 15 14 13 12
5 5 3 3 4 4 4 3 4 4 5 5 2 6 6 4 3 4 2 1 1 2 2 2 2 2 4 4 2 3 4 4 4 3 3 2 7 5 5 6 9 13 15 17 17
6 4 4 5 3 6 5 5 7 3 8 5 5 5 6 5 6 6 5 4 3 1 2 1 2 3 2 2 0 4 5 5 4 3 2 5 2 2 8 11 12 13 16 17 16
11 16 7 5 2 4 5 7 7 7 9 6 9 5 4 7 5 3 3 4 3 2 1 1 2 2 3 4 7 6 5 5 4 3 5 5 6 6 4 9 12 15 14 14 12
Wind_Direction
3 5 8 8 12 10 7 8 16 17 15 8 10 9 8 357 352 348 332 316 287 273 253 218 216 201 197 190 172 148 75 186 201 182 216 224 158 136 167 153 169 193 164 181 158
0 3 6 7 12 10 13 15 16 14 16 19 2 348 345 338 305 321 342 325 301 281 266 223 211 189 188 194 181 146 142 209 218 282 251 291 244 161 155 155 177 165 185 166 161
357 4 8 7 8 5 13 13 16 19 16 5 359 340 328 330 321 335 344 332 296 278 259 220 213 204 201 185 168 183 173 214 316 303 8 337 259 260 157 235 191 184 163 165 169
343 1 10 4 5 3 1 5 7 8 8 360 357 4 351 335 346 334 323 319 305 252 243 209 186 192 177 187 185 143 217 219 41 18 341 330 327 290 189 190 204 195 175 170 175
305 342 357 359 359 5 7 360 348 346 346 342 343 342 345 340 325 323 328 298 304 210 220 200 182 221 194 173 144 152 194 241 254 304 336 320 309 251 221 219 180 180 174 178 179
275 291 304 335 341 347 350 348 345 338 330 330 333 344 343 328 336 336 345 264 332 229 197 178 207 209 156 197 172 184 185 240 265 320 313 291 295 183 213 186 168 176 181 183 186
268 267 277 309 328 337 350 350 343 316 331 331 330 333 351 345 8 328 322 359 312 199 205 191 163 183 149 147 196 155 175 323 271 161 289 325 297 219 210 180 160 176 183 187 191
290 263 267 284 307 324 348 357 355 338 304 314 339 338 296 318 333 355 259 329 299 200 135 169 136 156 40 88 213 103 86 148 274 154 264 179 274 243 208 173 159 165 180 192 199
334 280 266 271 281 292 321 328 328 316 352 301 315 319 314 332 347 5 45 54 101 120 184 138 140 104 319 148 108 282 173 187 304 186 190 178 259 211 180 183 171 170 177 183 202
350 312 283 274 273 278 286 306 318 302 312 332 333 328 332 339 333 17 38 87 76 110 87 137 40 81 95 84 191 167 230 232 227 201 150 196 268 236 180 181 181 175 182 174 207
343 342 306 287 283 280 281 300 319 300 321 306 306 293 310 326 345 346 37 63 15 43 81 100 238 223 220 196 265 169 205 147 245 220 133 202 230 235 163 174 182 179 197 198 189
345 342 328 310 304 295 284 276 297 300 310 320 320 307 314 300 333 278 165 51 59 67 21 16 290 264 205 220 202 197 208 210 245 160 134 164 86 107 163 204 201 200 219 209 190
342 344 337 331 332 333 315 285 298 326 350 309 323 315 335 311 303 223 190 203 201 154 168 188 274 139 302 254 177 143 199 226 166 129 55 119 24 87 30 141 213 222 222 210 193
344 348 341 337 330 348 4 353 357 344 65 297 336 358 345 316 4 2 230 247 247 229 184 173 159 201 257 30 22 343 202 215 208 109 141 4 232 286 183 205 212 222 214 205 199
349 345 346 337 339 343 347 13 74 67 40 286 304 336 340 48 320 15 4 210 293 318 143 253 91 128 148 198 158 245 197 166 110 105 99 352 73 247 22 243 244 226 207 201 201
352 339 352 342 330 338 352 65 35 42 273 333 303 353 14 19 11 338 7 21 160 274 4 107 114 118 211 275 228 136 114 61 59 83 31 317 135 285 174 242 286 237 203 202 196
354 332 346 350 331 324 310 308 36 104 303 295 317 15 305 320 356 22 20 15 45 25 4 7 157 127 65 175 200 191 56 43 11 6 211 315 64 234 295 291 261 272 212 180 181
351 333 319 342 333 311 323 44 73 232 247 300 311 316 21 351 10 360 49 20 19 58 24 29 341 3 347 49 242 78 134 147 121 187 241 316 233 241 228 314 299 253 224 170 156
347 324 297 331 330 312 318 47 210 199 197 301 309 65 331 352 3 40 27 257 233 9 103 19 301 347 40 350 24 219 22 133 103 6 72 249 291 324 350 34 57 112 155 156 152
341 316 268 317 288 309 73 243 208 199 196 76 285 186 300 307 30 21 6 313 342 203 217 205 338 11 269 174 44 45 147 60 4 130 232 307 289 234 326 332 18 92 115 135 143
338 313 249 293 295 134 168 233 243 215 185 184 234 260 247 266 136 320 302 282 314 326 74 293 140 301 7 29 66 1 20 47 120 133 157 159 257 206 233 286 272 91 111 133 144
338 329 261 257 347 67 178 209 229 212 198 213 208 230 228 231 299 279 236 208 253 46 189 294 152 280 67 110 174 183 216 154 118 238 125 152 272 9 81 48 138 118 126 141 148
326 274 252 205 222 275 260 270 243 193 223 195 209 200 189 231 257 242 256 184 9 147 161 176 335 23 351 5 27 241 175 136 102 53 198 148 238 85 79 72 85 99 103 113 117
308 323 233 210 196 166 207 224 232 225 256 205 223 149 163 233 230 249 258 279 253 218 158 131 124 171 196 227 133 233 194 191 167 134 181 213 163 147 76 91 79 84 100 103 104
267 259 248 256 243 179 164 187 191 217 217 220 243 228 181 193 209 222 231 285 242 335 88 104 230 131 258 255 251 248 219 194 189 183 175 217 170 195 164 134 99 96 99 100 99
264 274 291 279 221 165 179 222 209 206 158 228 216 207 196 206 192 199 175 201 194 71 121 339 229 192 253 155 26 256 219 192 210 197 151 137 204 138 117 117 103 109 114 109 106
248 257 262 263 229 143 213 206 216 175 217 192 195 149 211 233 222 136 120 112 132 158 147 83 122 56 282 332 319 301 221 184 168 180 149 166 219 150 119 131 142 141 137 130 124
Height
1533 1531 1529 1526 1523 1520 1518 1515 1513 1511 1509 1508 1507 1505 1503 1502 1500 1499 1498 1498 1496 1495 1496 1497 1498 1500 1502 1504 1506 1508 1515 1517 1509 1510 1505 1502 1502 1502 1504 1505 1509 1510 1511 1512 1517
1533 1531 1529 1527 1524 1522 1519 1516 1514 1512 1510 1509 1508 1507 1504 1502 1501 1500 1499 1496 1495 1495 1495 1496 1498 1500 1503 1504 1506 1507 1514 1512 1506 1505 1503 1503 1503 1502 1504 1505 1508 1509 1512 1514 1517
1533 1532 1530 1528 1525 1523 1521 1518 1516 1514 1512 1511 1510 1507 1505 1502 1502 1501 1499 1496 1495 1495 1495 1496 1498 1501 1503 1503 1503 1506 1510 1506 1504 1504 1505 1503 1504 1504 1502 1506 1504 1505 1509 1514 1519
1533 1532 1530 1528 1526 1524 1521 1519 1517 1515 1514 1513 1511 1508 1505 1504 1506 1501 1499 1497 1495 1493 1494 1494 1497 1501 1502 1502 1502 1505 1504 1504 1504 1505 1506 1505 1504 1502 1501 1501 1502 1506 1509 1512 1517
1533 1531 1530 1528 1526 1524 1522 1520 1518 1517 1515 1513 1511 1509 1507 1505 1503 1500 1497 1496 1494 1494 1494 1494 1496 1501 1501 1501 1503 1504 1503 1503 1504 1505 1505 1504 1503 1502 1501 1501 1501 1505 1510 1513 1516
1532 1531 1529 1528 1526 1524 1522 1521 1519 1516 1514 1513 1511 1509 1507 1506 1503 1499 1497 1496 1495 1495 1495 1496 1496 1496 1500 1501 1501 1502 1503 1503 1504 1505 1505 1504 1501 1501 1500 1500 1501 1503 1508 1513 1517
1531 1530 1529 1527 1526 1524 1522 1520 1518 1515 1512 1511 1509 1507 1507 1507 1501 1499 1498 1497 1496 1496 1496 1497 1498 1500 1501 1501 1501 1500 1504 1503 1501 1503 1505 1504 1502 1500 1499 1501 1500 1504 1510 1513 1518
1529 1528 1527 1527 1525 1524 1522 1520 1517 1514 1512 1510 1508 1507 1505 1504 1502 1497 1496 1496 1496 1496 1497 1497 1499 1499 1500 1501 1502 1502 1504 1509 1501 1501 1504 1505 1509 1498 1498 1500 1500 1505 1509 1513 1517
1528 1526 1526 1525 1524 1523 1522 1520 1517 1514 1512 1510 1508 1507 1505 1503 1503 1500 1497 1497 1497 1497 1498 1498 1500 1500 1501 1502 1504 1504 1512 1508 1504 1497 1503 1505 1504 1496 1498 1500 1503 1505 1508 1512 1518
1527 1525 1523 1522 1522 1521 1520 1519 1516 1513 1511 1509 1508 1509 1506 1505 1502 1500 1500 1499 1499 1499 1500 1501 1501 1502 1503 1505 1507 1505 1507 1507 1506 1499 1501 1505 1503 1499 1498 1500 1501 1505 1508 1511 1513
1526 1523 1521 1520 1519 1518 1518 1517 1518 1514 1511 1511 1509 1506 1505 1504 1503 1503 1502 1502 1501 1501 1501 1503 1504 1504 1503 1502 1501 1505 1505 1504 1501 1495 1500 1505 1502 1499 1498 1501 1503 1506 1509 1512 1516
1525 1523 1520 1518 1516 1515 1515 1515 1515 1517 1512 1508 1507 1505 1504 1503 1503 1502 1503 1503 1502 1504 1505 1508 1507 1501 1499 1500 1501 1505 1503 1502 1497 1495 1499 1503 1504 1502 1501 1502 1503 1505 1511 1514 1516
1525 1522 1519 1517 1516 1515 1514 1514 1514 1513 1514 1508 1506 1504 1503 1504 1502 1501 1503 1502 1500 1503 1506 1506 1502 1501 1501 1499 1500 1502 1503 1502 1499 1498 1500 1500 1505 1504 1501 1502 1504 1508 1511 1509 1510
1525 1523 1519 1517 1518 1515 1514 1514 1513 1514 1526 1514 1506 1506 1505 1502 1503 1501 1501 1503 1499 1499 1499 1499 1500 1502 1503 1500 1501 1504 1498 1498 1497 1503 1516 1505 1527 1504 1503 1503 1502 1502 1503 1505 1508
1524 1523 1520 1517 1517 1516 1516 1514 1513 1515 1552 1513 1507 1506 1503 1503 1503 1502 1501 1499 1499 1498 1499 1500 1500 1500 1501 1500 1502 1500 1496 1496 1499 1508 1510 1510 1523 1508 1505 1503 1502 1502 1504 1507 1510
1524 1522 1520 1519 1517 1516 1515 1515 1515 1533 1546 1518 1509 1508 1504 1503 1502 1499 1500 1498 1498 1498 1496 1497 1497 1499 1499 1499 1499 1496 1497 1498 1503 1506 1522 1516 1526 1515 1510 1505 1502 1503 1504 1506 1508
1524 1522 1521 1518 1518 1517 1516 1516 1531 1543 1522 1517 1514 1510 1510 1507 1503 1502 1502 1505 1509 1510 1507 1499 1499 1498 1499 1498 1498 1497 1500 1528 1525 1537 1531 1525 1527 1507 1506 1505 1503 1502 1504 1506 1507
1524 1522 1521 1519 1518 1517 1517 1519 1536 1523 1521 1515 1513 1511 1510 1511 1507 1506 1507 1514 1509 1510 1515 1518 1513 1501 1500 1501 1499 1499 1501 1520 1523 1537 1533 1519 1520 1510 1505 1503 1501 1498 1501 1504 1507
1523 1521 1519 1518 1517 1518 1519 1538 1525 1521 1517 1518 1513 1512 1513 1512 1512 1510 1512 1513 1511 1509 1513 1515 1505 1501 1501 1500 1502 1498 1509 1506 1525 1538 1531 1533 1509 1503 1501 1501 1501 1498 1500 1504 1507
1522 1519 1518 1517 1517 1517 1522 1522 1518 1516 1516 1517 1514 1513 1513 1515 1513 1514 1515 1512 1511 1509 1509 1510 1511 1502 1501 1500 1502 1502 1505 1512 1523 1521 1519 1532 1516 1527 1512 1502 1501 1502 1501 1505 1508
1520 1518 1517 1516 1517 1516 1529 1524 1517 1513 1515 1517 1516 1516 1513 1512 1514 1514 1514 1513 1510 1509 1509 1508 1511 1504 1499 1504 1508 1508 1508 1510 1516 1519 1522 1532 1524 1512 1509 1505 1501 1499 1504 1508 1511
1521 1519 1515 1516 1519 1519 1521 1518 1515 1515 1514 1513 1515 1514 1515 1513 1511 1513 1512 1512 1510 1510 1509 1509 1510 1514 1502 1505 1505 1505 1505 1507 1524 1508 1523 1520 1526 1508 1508 1505 1503 1505 1508 1511 1514
1520 1517 1514 1513 1519 1520 1515 1515 1515 1514 1514 1514 1512 1513 1512 1514 1512 1511 1509 1508 1508 1508 1509 1509 1514 1524 1509 1508 1506 1504 1505 1507 1511 1514 1511 1511 1515 1507 1507 1506 1506 1505 1508 1511 1514
1522 1519 1512 1512 1511 1513 1515 1512 1512 1512 1512 1511 1510 1509 1511 1511 1511 1510 1508 1507 1507 1507 1507 1508 1515 1513 1517 1503 1506 1504 1503 1505 1508 1516 1509 1507 1506 1506 1506 1505 1505 1507 1509 1512 1515
1523 1514 1511 1512 1509 1508 1511 1510 1510 1509 1511 1511 1509 1509 1507 1509 1508 1509 1508 1507 1507 1507 1507 1509 1510 1517 1511 1509 1507 1504 1502 1505 1508 1504 1503 1499 1505 1504 1505 1506 1507 1510 1512 1515 1518
1520 1515 1513 1508 1505 1507 1507 1507 1507 1504 1504 1507 1509 1504 1506 1506 1503 1504 1505 1506 1505 1507 1508 1509 1509 1512 1504 1507 1508 1504 1503 1505 1504 1503 1501 1507 1501 1501 1505 1506 1509 1511 1514 1517 1520
1515 1513 1512 1505 1505 1505 1501 1496 1497 1499 1497 1496 1499 1503 1505 1502 1501 1501 1502 1504 1505 1506 1508 1510 1511 1515 1504 1510 1506 1499 1496 1497 1499 1499 1499 1502 1498 1500 1505 1506 1509 1512 1516 1519 1521